Terminal Aerodrome Forecast
Issued by NWS Jackson, MS

Home | Current Version | Previous Version | Text Only | Print | Product List | Glossary On
Versions: 1 2 3 4 5 6 7 8 9 10 11 12
237
FTUS44 KJAN 242334
TAFGLH
TAF
KGLH 242334Z 2500/2524 17006KT P6SM FEW050 SCT150 BKN250
     FM251000 18006KT 5SM BR BKN020 BKN200
     FM251500 19011KT P6SM SCT025 BKN035=

USA.gov is the U.S. government's official web portal to all federal, state and local government web resources and services.